owner,sensor,date,latitude,longitude,vertical_datum,direction_of_sea_water_velocity,sea_water_speed,upward_sea_water_velocity,qcFlag 
TABS,ioos:station:wmo:42045:1,2014-11-01T00:00:00Z,26.2168,-96.4998,2.0,0.0,0.0,-99999.0,'11133222,11111222,99999999' 
TABS,ioos:station:wmo:42045:1,2014-11-01T00:30:00Z,26.2168,-96.4998,2.0,284.4182577,10.92404687,-99999.0,'11111222,11111222,99999999' 
TABS,ioos:station:wmo:42045:1,2014-11-01T01:00:00Z,26.2168,-96.4998,2.0,280.3741082,11.16245941,-99999.0,'11111222,11111222,99999999' 
TABS,ioos:station:wmo:42045:1,2014-11-01T01:30:00Z,26.2168,-96.4998,2.0,291.6511867,10.59766956,-99999.0,'11111222,11111222,99999999' 
TABS,ioos:station:wmo:42045:1,2014-11-01T02:00:00Z,26.2168,-96.4998,2.0,291.1364835,9.595524999,-99999.0,'11133222,11111222,99999999' 
TABS,ioos:station:wmo:42045:1,2014-11-01T02:30:00Z,26.2168,-96.4998,2.0,281.6071929,9.841239759,-99999.0,'11133222,11111222,99999999' 
TABS,ioos:station:wmo:42045:1,2014-11-01T03:00:00Z,26.2168,-96.4998,2.0,299.6395862,10.09024281,-99999.0,'11111222,11111222,99999999' 
TABS,ioos:station:wmo:42045:1,2014-11-01T03:30:00Z,26.2168,-96.4998,2.0,315.6588573,7.997905976,-99999.0,'11133222,11111222,99999999' 
TABS,ioos:station:wmo:42045:1,2014-11-01T04:00:00Z,26.2168,-96.4998,2.0,297.9930433,7.180006964,-99999.0,'11133222,11111222,99999999' 
TABS,ioos:station:wmo:42045:1,2014-11-01T04:30:00Z,26.2168,-96.4998,2.0,295.1103522,6.692473384,-99999.0,'11133222,11111222,99999999' 
TABS,ioos:station:wmo:42045:1,2014-11-01T05:00:00Z,26.2168,-96.4998,2.0,281.0741019,10.46484591,-99999.0,'11111222,11111222,99999999' 
TABS,ioos:station:wmo:42045:1,2014-11-01T05:30:00Z,26.2168,-96.4998,2.0,305.7384806,10.63207412,-99999.0,'11111222,11111222,99999999' 
TABS,ioos:station:wmo:42045:1,2014-11-01T06:00:00Z,26.2168,-96.4998,2.0,274.066068,8.180586776,-99999.0,'11133222,11111222,99999999' 
TABS,ioos:station:wmo:42045:1,2014-11-01T06:30:00Z,26.2168,-96.4998,2.0,283.7912556,9.061214047,-99999.0,'11133222,11111222,99999999' 
TABS,ioos:station:wmo:42045:1,2014-11-01T07:00:00Z,26.2168,-96.4998,2.0,289.2398689,8.557967048,-99999.0,'11133222,11111222,99999999' 
TABS,ioos:station:wmo:42045:1,2014-11-01T07:30:00Z,26.2168,-96.4998,2.0,283.4418884,11.91641725,-99999.0,'11111222,11111222,99999999' 
TABS,ioos:station:wmo:42045:1,2014-11-01T08:00:00Z,26.2168,-96.4998,2.0,297.8033497,12.00601516,-99999.0,'11111222,11111222,99999999' 
TABS,ioos:station:wmo:42045:1,2014-11-01T08:30:00Z,26.2168,-96.4998,2.0,294.9798633,10.18248005,-99999.0,'11111222,11111222,99999999' 
TABS,ioos:station:wmo:42045:1,2014-11-01T09:00:00Z,26.2168,-96.4998,2.0,291.8899265,12.07021127,-99999.0,'11111222,11111222,99999999' 
TABS,ioos:station:wmo:42045:1,2014-11-01T09:30:00Z,26.2168,-96.4998,2.0,315.0530741,15.3583658,-99999.0,'11111222,11111222,99999999' 
TABS,ioos:station:wmo:42045:1,2014-11-01T10:00:00Z,26.2168,-96.4998,2.0,302.9508539,13.75216347,-99999.0,'11111222,11111222,99999999' 
TABS,ioos:station:wmo:42045:1,2014-11-01T10:30:00Z,26.2168,-96.4998,2.0,310.9866543,14.04222561,-99999.0,'11111222,11111222,99999999' 
TABS,ioos:station:wmo:42045:1,2014-11-01T11:00:00Z,26.2168,-96.4998,2.0,307.0061733,16.01604508,-99999.0,'11111222,11111222,99999999' 
TABS,ioos:station:wmo:42045:1,2014-11-01T11:30:00Z,26.2168,-96.4998,2.0,322.1657308,18.65064342,-99999.0,'11111222,11111222,99999999' 
TABS,ioos:station:wmo:42045:1,2014-11-01T12:00:00Z,26.2168,-96.4998,2.0,312.6662742,12.67479783,-99999.0,'11111222,11111222,99999999' 
TABS,ioos:station:wmo:42045:1,2014-11-01T12:30:00Z,26.2168,-96.4998,2.0,323.1636524,17.2300029,-99999.0,'11111222,11111222,99999999' 
TABS,ioos:station:wmo:42045:1,2014-11-01T13:00:00Z,26.2168,-96.4998,2.0,324.5826878,18.86005832,-99999.0,'11111222,11111222,99999999' 
TABS,ioos:station:wmo:42045:1,2014-11-01T13:30:00Z,26.2168,-96.4998,2.0,329.3457196,18.75021333,-99999.0,'11111222,11111222,99999999' 
TABS,ioos:station:wmo:42045:1,2014-11-01T14:00:00Z,26.2168,-96.4998,2.0,325.1817059,17.32109985,-99999.0,'11111222,11111222,99999999' 
TABS,ioos:station:wmo:42045:1,2014-11-01T14:30:00Z,26.2168,-96.4998,2.0,329.7705438,20.08070218,-99999.0,'11111222,11111222,99999999' 
TABS,ioos:station:wmo:42045:1,2014-11-01T15:00:00Z,26.2168,-96.4998,2.0,335.8897372,14.9327459,-99999.0,'11111222,11111222,99999999' 
TABS,ioos:station:wmo:42045:1,2014-11-01T15:30:00Z,26.2168,-96.4998,2.0,329.4733426,13.72200058,-99999.0,'11111222,11111222,99999999' 
TABS,ioos:station:wmo:42045:1,2014-11-01T16:00:00Z,26.2168,-96.4998,2.0,327.3216001,14.61307976,-99999.0,'11111222,11111222,99999999' 
TABS,ioos:station:wmo:42045:1,2014-11-01T16:30:00Z,26.2168,-96.4998,2.0,332.2647331,11.60314182,-99999.0,'11111222,11111222,99999999' 
TABS,ioos:station:wmo:42045:1,2014-11-01T17:00:00Z,26.2168,-96.4998,2.0,335.9911991,13.7386535,-99999.0,'11111222,11111222,99999999' 
TABS,ioos:station:wmo:42045:1,2014-11-01T17:30:00Z,26.2168,-96.4998,2.0,318.2879289,11.46693071,-99999.0,'11111222,11111222,99999999' 
TABS,ioos:station:wmo:42045:1,2014-11-01T18:00:00Z,26.2168,-96.4998,2.0,319.878461,8.8141931,-99999.0,'11133222,11111222,99999999' 
TABS,ioos:station:wmo:42045:1,2014-11-01T18:30:00Z,26.2168,-96.4998,2.0,336.351246,8.351347197,-99999.0,'11133222,11111222,99999999' 
TABS,ioos:station:wmo:42045:1,2014-11-01T19:00:00Z,26.2168,-96.4998,2.0,324.1734818,7.141183375,-99999.0,'11133222,11111222,99999999' 
TABS,ioos:station:wmo:42045:1,2014-11-01T19:30:00Z,26.2168,-96.4998,2.0,340.8156849,8.459816783,-99999.0,'11133222,11111222,99999999' 
TABS,ioos:station:wmo:42045:1,2014-11-01T20:00:00Z,26.2168,-96.4998,2.0,317.6147392,6.200709637,-99999.0,'11133222,11111222,99999999' 
TABS,ioos:station:wmo:42045:1,2014-11-01T20:30:00Z,26.2168,-96.4998,2.0,346.3090116,6.041671954,-99999.0,'11133222,11111222,99999999' 
TABS,ioos:station:wmo:42045:1,2014-11-01T21:00:00Z,26.2168,-96.4998,2.0,342.8515194,7.325680856,-99999.0,'11133222,11111222,99999999' 
TABS,ioos:station:wmo:42045:1,2014-11-01T21:30:00Z,26.2168,-96.4998,2.0,311.2790111,3.486316107,-99999.0,'11133222,11111222,99999999' 
TABS,ioos:station:wmo:42045:1,2014-11-01T22:00:00Z,26.2168,-96.4998,2.0,322.2337784,3.706453831,-99999.0,'11133222,11111222,99999999' 
TABS,ioos:station:wmo:42045:1,2014-11-01T22:30:00Z,26.2168,-96.4998,2.0,319.9251906,6.259792329,-99999.0,'11133222,11111222,99999999' 
TABS,ioos:station:wmo:42045:1,2014-11-01T23:00:00Z,26.2168,-96.4998,2.0,333.848404,3.720913866,-99999.0,'11133222,11111222,99999999' 
TABS,ioos:station:wmo:42045:1,2014-11-01T23:30:00Z,26.2168,-96.4998,2.0,305.2479136,4.59184059,-99999.0,'11133222,11111222,99999999' 
TABS,ioos:station:wmo:42045:1,2014-11-02T00:00:00Z,26.2168,-96.4998,2.0,289.799251,5.579838707,-99999.0,'11133222,11111222,99999999' 
TABS,ioos:station:wmo:42045:1,2014-11-02T00:30:00Z,26.2168,-96.4998,2.0,289.2214161,3.918430808,-99999.0,'11133222,11111222,99999999' 
TABS,ioos:station:wmo:42045:1,2014-11-02T01:00:00Z,26.2168,-96.4998,2.0,295.278084,5.175567602,-99999.0,'11133222,11111222,99999999' 
TABS,ioos:station:wmo:42045:1,2014-11-02T01:30:00Z,26.2168,-96.4998,2.0,285.3974417,5.310602602,-99999.0,'11133222,11111222,99999999' 
TABS,ioos:station:wmo:42045:1,2014-11-02T02:00:00Z,26.2168,-96.4998,2.0,303.5520982,4.595704516,-99999.0,'11133222,11111222,99999999' 
TABS,ioos:station:wmo:42045:1,2014-11-02T02:30:00Z,26.2168,-96.4998,2.0,307.0413771,6.026026883,-99999.0,'11133222,11111222,99999999' 
TABS,ioos:station:wmo:42045:1,2014-11-02T03:00:00Z,26.2168,-96.4998,2.0,304.8633,6.91023878,-99999.0,'11133222,11111222,99999999' 
TABS,ioos:station:wmo:42045:1,2014-11-02T03:30:00Z,26.2168,-96.4998,2.0,281.9721759,7.809865556,-99999.0,'11133222,11111222,99999999' 
TABS,ioos:station:wmo:42045:1,2014-11-02T04:00:00Z,26.2168,-96.4998,2.0,299.5031088,3.22865297,-99999.0,'11133222,11111222,99999999' 
TABS,ioos:station:wmo:42045:1,2014-11-02T04:30:00Z,26.2168,-96.4998,2.0,295.5972436,6.087446098,-99999.0,'11133222,11111222,99999999' 
TABS,ioos:station:wmo:42045:1,2014-11-02T05:00:00Z,26.2168,-96.4998,2.0,314.1779466,7.390027064,-99999.0,'11133222,11111222,99999999' 
TABS,ioos:station:wmo:42045:1,2014-11-02T05:30:00Z,26.2168,-96.4998,2.0,287.4320479,7.043472155,-99999.0,'11133222,11111222,99999999' 
TABS,ioos:station:wmo:42045:1,2014-11-02T06:00:00Z,26.2168,-96.4998,2.0,294.3268716,7.671095098,-99999.0,'11133222,11111222,99999999' 
TABS,ioos:station:wmo:42045:1,2014-11-02T06:30:00Z,26.2168,-96.4998,2.0,324.8572853,5.906682656,-99999.0,'11133222,11111222,99999999' 
TABS,ioos:station:wmo:42045:1,2014-11-02T07:00:00Z,26.2168,-96.4998,2.0,286.6243503,5.103302852,-99999.0,'11133222,11111222,99999999' 
TABS,ioos:station:wmo:42045:1,2014-11-02T07:30:00Z,26.2168,-96.4998,2.0,307.125278,7.638075674,-99999.0,'11133222,11111222,99999999' 
TABS,ioos:station:wmo:42045:1,2014-11-02T08:00:00Z,26.2168,-96.4998,2.0,315.4950844,8.188601834,-99999.0,'11133222,11111222,99999999' 
TABS,ioos:station:wmo:42045:1,2014-11-02T08:30:00Z,26.2168,-96.4998,2.0,267.775623,6.184658438,-99999.0,'11133222,11111222,99999999' 
TABS,ioos:station:wmo:42045:1,2014-11-02T09:00:00Z,26.2168,-96.4998,2.0,289.2663092,7.849598716,-99999.0,'11133222,11111222,99999999' 
TABS,ioos:station:wmo:42045:1,2014-11-02T09:30:00Z,26.2168,-96.4998,2.0,298.7764988,5.795731188,-99999.0,'11133222,11111222,99999999' 
TABS,ioos:station:wmo:42045:1,2014-11-02T10:00:00Z,26.2168,-96.4998,2.0,320.8786812,6.006637995,-99999.0,'11133222,11111222,99999999' 
TABS,ioos:station:wmo:42045:1,2014-11-02T10:30:00Z,26.2168,-96.4998,2.0,307.7823037,5.402684518,-99999.0,'11133222,11111222,99999999' 
TABS,ioos:station:wmo:42045:1,2014-11-02T11:00:00Z,26.2168,-96.4998,2.0,344.1345398,3.95049364,-99999.0,'11133222,11111222,99999999' 
TABS,ioos:station:wmo:42045:1,2014-11-02T11:30:00Z,26.2168,-96.4998,2.0,315.0003157,5.218448045,-99999.0,'11133222,11111222,99999999' 
TABS,ioos:station:wmo:42045:1,2014-11-02T12:00:00Z,26.2168,-96.4998,2.0,312.8854847,4.790375768,-99999.0,'11133222,11111222,99999999' 
TABS,ioos:station:wmo:42045:1,2014-11-02T12:30:00Z,26.2168,-96.4998,2.0,302.8603416,9.380964769,-99999.0,'11133222,11111222,99999999' 
TABS,ioos:station:wmo:42045:1,2014-11-02T13:00:00Z,26.2168,-96.4998,2.0,322.0015669,5.685103341,-99999.0,'11133222,11111222,99999999' 
TABS,ioos:station:wmo:42045:1,2014-11-02T13:30:00Z,26.2168,-96.4998,2.0,335.2439565,8.501294019,-99999.0,'11133222,11111222,99999999' 
TABS,ioos:station:wmo:42045:1,2014-11-02T14:00:00Z,26.2168,-96.4998,2.0,328.2434417,8.797005172,-99999.0,'11133222,11111222,99999999' 
TABS,ioos:station:wmo:42045:1,2014-11-02T14:30:00Z,26.2168,-96.4998,2.0,330.5909477,8.471717653,-99999.0,'11133222,11111222,99999999' 
TABS,ioos:station:wmo:42045:1,2014-11-02T15:00:00Z,26.2168,-96.4998,2.0,332.1998498,8.919512319,-99999.0,'11133222,11111222,99999999' 
TABS,ioos:station:wmo:42045:1,2014-11-02T15:30:00Z,26.2168,-96.4998,2.0,338.7673678,8.421698166,-99999.0,'11133222,11111222,99999999' 
TABS,ioos:station:wmo:42045:1,2014-11-02T16:00:00Z,26.2168,-96.4998,2.0,346.0565016,7.511338097,-99999.0,'11133222,11111222,99999999' 
TABS,ioos:station:wmo:42045:1,2014-11-02T16:30:00Z,26.2168,-96.4998,2.0,338.9177852,10.06362261,-99999.0,'11111222,11111222,99999999' 
TABS,ioos:station:wmo:42045:1,2014-11-02T17:00:00Z,26.2168,-96.4998,2.0,1.737860019,8.904094564,-99999.0,'11133222,11111222,99999999' 
TABS,ioos:station:wmo:42045:1,2014-11-02T17:30:00Z,26.2168,-96.4998,2.0,349.3563906,11.64027921,-99999.0,'11111222,11111222,99999999' 
TABS,ioos:station:wmo:42045:1,2014-11-02T18:00:00Z,26.2168,-96.4998,2.0,349.5795224,10.61508361,-99999.0,'11111222,11111222,99999999' 
TABS,ioos:station:wmo:42045:1,2014-11-02T18:30:00Z,26.2168,-96.4998,2.0,355.2568616,11.73017476,-99999.0,'11111222,11111222,99999999' 
TABS,ioos:station:wmo:42045:1,2014-11-02T19:00:00Z,26.2168,-96.4998,2.0,346.2139247,11.1203642,-99999.0,'11111222,11111222,99999999' 
TABS,ioos:station:wmo:42045:1,2014-11-02T19:30:00Z,26.2168,-96.4998,2.0,356.9167456,10.22480318,-99999.0,'11111222,11111222,99999999' 
TABS,ioos:station:wmo:42045:1,2014-11-02T20:00:00Z,26.2168,-96.4998,2.0,2.19018143,10.46764539,-99999.0,'11111222,11111222,99999999' 
TABS,ioos:station:wmo:42045:1,2014-11-02T20:30:00Z,26.2168,-96.4998,2.0,15.30487863,16.21505473,-99999.0,'11111222,11111222,99999999' 
TABS,ioos:station:wmo:42045:1,2014-11-02T21:00:00Z,26.2168,-96.4998,2.0,23.39168561,20.27645433,-99999.0,'11111222,11111222,99999999' 
TABS,ioos:station:wmo:42045:1,2014-11-02T21:30:00Z,26.2168,-96.4998,2.0,21.37288319,22.08907875,-99999.0,'11111222,11111222,99999999' 
TABS,ioos:station:wmo:42045:1,2014-11-02T22:00:00Z,26.2168,-96.4998,2.0,19.20968731,20.81917626,-99999.0,'11111222,11111222,99999999' 
TABS,ioos:station:wmo:42045:1,2014-11-02T22:30:00Z,26.2168,-96.4998,2.0,26.78360625,17.59798284,-99999.0,'11111222,11111222,99999999' 
TABS,ioos:station:wmo:42045:1,2014-11-02T23:00:00Z,26.2168,-96.4998,2.0,21.0707632,16.16052289,-99999.0,'11111222,11111222,99999999' 
TABS,ioos:station:wmo:42045:1,2014-11-02T23:30:00Z,26.2168,-96.4998,2.0,21.57000945,17.00054705,-99999.0,'11111222,11111222,99999999' 
TABS,ioos:station:wmo:42045:1,2014-11-03T00:00:00Z,26.2168,-96.4998,2.0,14.97263025,15.28906145,-99999.0,'11111222,11111222,99999999' 
TABS,ioos:station:wmo:42045:1,2014-11-03T00:30:00Z,26.2168,-96.4998,2.0,10.49006004,13.01756122,-99999.0,'11111222,11111222,99999999' 
TABS,ioos:station:wmo:42045:1,2014-11-03T01:00:00Z,26.2168,-96.4998,2.0,17.62454906,15.4239716,-99999.0,'11111222,11111222,99999999' 
TABS,ioos:station:wmo:42045:1,2014-11-03T01:30:00Z,26.2168,-96.4998,2.0,16.68528427,15.53402717,-99999.0,'11111222,11111222,99999999' 
TABS,ioos:station:wmo:42045:1,2014-11-03T02:00:00Z,26.2168,-96.4998,2.0,3.968506858,17.05087974,-99999.0,'11111222,11111222,99999999' 
TABS,ioos:station:wmo:42045:1,2014-11-03T02:30:00Z,26.2168,-96.4998,2.0,10.30179451,15.82510032,-99999.0,'11111222,11111222,99999999' 
TABS,ioos:station:wmo:42045:1,2014-11-03T03:00:00Z,26.2168,-96.4998,2.0,359.1870365,15.50156121,-99999.0,'11111222,11144222,99999999' 
TABS,ioos:station:wmo:42045:1,2014-11-03T03:30:00Z,26.2168,-96.4998,2.0,4.147220191,17.28525672,-99999.0,'11111222,11111222,99999999' 
TABS,ioos:station:wmo:42045:1,2014-11-03T04:00:00Z,26.2168,-96.4998,2.0,358.9156354,14.7926502,-99999.0,'11111222,11111222,99999999' 
TABS,ioos:station:wmo:42045:1,2014-11-03T04:30:00Z,26.2168,-96.4998,2.0,12.5840279,16.93685331,-99999.0,'11111222,11111222,99999999' 
TABS,ioos:station:wmo:42045:1,2014-11-03T05:00:00Z,26.2168,-96.4998,2.0,14.13043821,17.73665414,-99999.0,'11111222,11111222,99999999' 
TABS,ioos:station:wmo:42045:1,2014-11-03T05:30:00Z,26.2168,-96.4998,2.0,6.879732412,17.94923118,-99999.0,'11111222,11111222,99999999' 
TABS,ioos:station:wmo:42045:1,2014-11-03T06:00:00Z,26.2168,-96.4998,2.0,1.066236591,14.51251184,-99999.0,'11111222,11111222,99999999' 
TABS,ioos:station:wmo:42045:1,2014-11-03T06:30:00Z,26.2168,-96.4998,2.0,14.74546902,16.85509122,-99999.0,'11111222,11111222,99999999' 
TABS,ioos:station:wmo:42045:1,2014-11-03T07:00:00Z,26.2168,-96.4998,2.0,14.59584597,19.12727111,-99999.0,'11111222,11111222,99999999' 
TABS,ioos:station:wmo:42045:1,2014-11-03T07:30:00Z,26.2168,-96.4998,2.0,17.4392263,17.28445834,-99999.0,'11111222,11111222,99999999' 
TABS,ioos:station:wmo:42045:1,2014-11-03T08:00:00Z,26.2168,-96.4998,2.0,13.69975552,20.22539493,-99999.0,'11111222,11111222,99999999' 
TABS,ioos:station:wmo:42045:1,2014-11-03T08:30:00Z,26.2168,-96.4998,2.0,5.539888672,19.68192318,-99999.0,'11111222,11111222,99999999' 
TABS,ioos:station:wmo:42045:1,2014-11-03T09:00:00Z,26.2168,-96.4998,2.0,12.47247734,17.59523799,-99999.0,'11111222,11111222,99999999' 
TABS,ioos:station:wmo:42045:1,2014-11-03T09:30:00Z,26.2168,-96.4998,2.0,5.100113119,18.11170064,-99999.0,'11111222,11111222,99999999' 
TABS,ioos:station:wmo:42045:1,2014-11-03T10:00:00Z,26.2168,-96.4998,2.0,5.843741584,17.58135945,-99999.0,'11111222,11111222,99999999' 
TABS,ioos:station:wmo:42045:1,2014-11-03T10:30:00Z,26.2168,-96.4998,2.0,10.74681257,21.34435054,-99999.0,'11111222,11111222,99999999' 
TABS,ioos:station:wmo:42045:1,2014-11-03T11:00:00Z,26.2168,-96.4998,2.0,359.0174886,21.57317316,-99999.0,'11111222,11144222,99999999' 
TABS,ioos:station:wmo:42045:1,2014-11-03T11:30:00Z,26.2168,-96.4998,2.0,1.846328631,24.83288948,-99999.0,'11111222,11111222,99999999' 
TABS,ioos:station:wmo:42045:1,2014-11-03T12:00:00Z,26.2168,-96.4998,2.0,356.3374937,17.37549136,-99999.0,'11111222,11111222,99999999' 
TABS,ioos:station:wmo:42045:1,2014-11-03T12:30:00Z,26.2168,-96.4998,2.0,350.6255854,27.93306464,-99999.0,'11111222,11111222,99999999' 
TABS,ioos:station:wmo:42045:1,2014-11-03T13:00:00Z,26.2168,-96.4998,2.0,6.397079115,25.6698208,-99999.0,'11111222,11111222,99999999' 
TABS,ioos:station:wmo:42045:1,2014-11-03T13:30:00Z,26.2168,-96.4998,2.0,0.911607039,27.03342006,-99999.0,'11111222,11111222,99999999' 
TABS,ioos:station:wmo:42045:1,2014-11-03T14:00:00Z,26.2168,-96.4998,2.0,3.289692028,26.66393257,-99999.0,'11111222,11111222,99999999' 
TABS,ioos:station:wmo:42045:1,2014-11-03T14:30:00Z,26.2168,-96.4998,2.0,358.4044102,27.29058446,-99999.0,'11111222,11111222,99999999' 
TABS,ioos:station:wmo:42045:1,2014-11-03T15:00:00Z,26.2168,-96.4998,2.0,359.3550165,26.64168914,-99999.0,'11111222,11144222,99999999' 
TABS,ioos:station:wmo:42045:1,2014-11-03T15:30:00Z,26.2168,-96.4998,2.0,359.0898241,27.06341627,-99999.0,'11111222,11144222,99999999' 
TABS,ioos:station:wmo:42045:1,2014-11-03T16:00:00Z,26.2168,-96.4998,2.0,353.6208484,27.44997086,-99999.0,'11111222,11111222,99999999' 
TABS,ioos:station:wmo:42045:1,2014-11-03T16:30:00Z,26.2168,-96.4998,2.0,350.3926986,29.83851203,-99999.0,'11111222,11111222,99999999' 
TABS,ioos:station:wmo:42045:1,2014-11-03T17:00:00Z,26.2168,-96.4998,2.0,1.057071316,31.44534942,-99999.0,'11111222,11111222,99999999' 
TABS,ioos:station:wmo:42045:1,2014-11-03T17:30:00Z,26.2168,-96.4998,2.0,359.3710084,31.87192181,-99999.0,'11111222,11144222,99999999' 
TABS,ioos:station:wmo:42045:1,2014-11-03T18:00:00Z,26.2168,-96.4998,2.0,2.579954773,34.21467521,-99999.0,'11111222,11111222,99999999' 
TABS,ioos:station:wmo:42045:1,2014-11-03T18:30:00Z,26.2168,-96.4998,2.0,1.733872034,34.04558415,-99999.0,'11111222,11111222,99999999' 
TABS,ioos:station:wmo:42045:1,2014-11-03T19:00:00Z,26.2168,-96.4998,2.0,17.04280355,39.9545254,-99999.0,'11111222,11111222,99999999' 
TABS,ioos:station:wmo:42045:1,2014-11-03T19:30:00Z,26.2168,-96.4998,2.0,20.84245614,39.82608818,-99999.0,'11111222,11111222,99999999' 
TABS,ioos:station:wmo:42045:1,2014-11-03T20:00:00Z,26.2168,-96.4998,2.0,22.46051576,39.23630589,-99999.0,'11111222,11111222,99999999' 
TABS,ioos:station:wmo:42045:1,2014-11-03T20:30:00Z,26.2168,-96.4998,2.0,16.6730811,39.59462716,-99999.0,'11111222,11111222,99999999' 
TABS,ioos:station:wmo:42045:1,2014-11-03T21:00:00Z,26.2168,-96.4998,2.0,17.83223275,36.96590997,-99999.0,'11111222,11111222,99999999' 
TABS,ioos:station:wmo:42045:1,2014-11-03T21:30:00Z,26.2168,-96.4998,2.0,19.72527848,39.46574337,-99999.0,'11111222,11111222,99999999' 
TABS,ioos:station:wmo:42045:1,2014-11-03T22:00:00Z,26.2168,-96.4998,2.0,17.8901029,37.56639589,-99999.0,'11111222,11111222,99999999' 
TABS,ioos:station:wmo:42045:1,2014-11-03T22:30:00Z,26.2168,-96.4998,2.0,22.1483998,42.33374186,-99999.0,'11111222,11111222,99999999' 
TABS,ioos:station:wmo:42045:1,2014-11-03T23:00:00Z,26.2168,-96.4998,2.0,14.74300111,39.53146215,-99999.0,'11111222,11111222,99999999' 
TABS,ioos:station:wmo:42045:1,2014-11-03T23:30:00Z,26.2168,-96.4998,2.0,23.26270787,38.8155188,-99999.0,'11111222,11111222,99999999' 
TABS,ioos:station:wmo:42045:1,2014-11-04T00:00:00Z,26.2168,-96.4998,2.0,5.809468481,26.57648773,-99999.0,'11111222,11111222,99999999' 
TABS,ioos:station:wmo:42045:1,2014-11-04T00:30:00Z,26.2168,-96.4998,2.0,18.05341871,36.07606409,-99999.0,'11111222,11111222,99999999' 
TABS,ioos:station:wmo:42045:1,2014-11-04T01:00:00Z,26.2168,-96.4998,2.0,15.77245229,38.1877847,-99999.0,'11111222,11111222,99999999' 
TABS,ioos:station:wmo:42045:1,2014-11-04T01:30:00Z,26.2168,-96.4998,2.0,15.65080583,36.84608527,-99999.0,'11111222,11111222,99999999' 
TABS,ioos:station:wmo:42045:1,2014-11-04T02:00:00Z,26.2168,-96.4998,2.0,16.64520975,34.42237644,-99999.0,'11111222,11111222,99999999' 
TABS,ioos:station:wmo:42045:1,2014-11-04T02:30:00Z,26.2168,-96.4998,2.0,21.52144255,34.1832064,-99999.0,'11111222,11111222,99999999' 
TABS,ioos:station:wmo:42045:1,2014-11-04T03:00:00Z,26.2168,-96.4998,2.0,27.1307195,34.88883202,-99999.0,'11111222,11111222,99999999' 
TABS,ioos:station:wmo:42045:1,2014-11-04T03:30:00Z,26.2168,-96.4998,2.0,17.07132651,32.0208073,-99999.0,'11111222,11111222,99999999' 
TABS,ioos:station:wmo:42045:1,2014-11-04T04:00:00Z,26.2168,-96.4998,2.0,18.272806,25.67463534,-99999.0,'11111222,11111222,99999999' 
TABS,ioos:station:wmo:42045:1,2014-11-04T04:30:00Z,26.2168,-96.4998,2.0,16.8906046,29.56538855,-99999.0,'11111222,11111222,99999999' 
TABS,ioos:station:wmo:42045:1,2014-11-04T05:00:00Z,26.2168,-96.4998,2.0,17.34613889,33.94369455,-99999.0,'11111222,11111222,99999999' 
TABS,ioos:station:wmo:42045:1,2014-11-04T05:30:00Z,26.2168,-96.4998,2.0,19.61244406,33.39754033,-99999.0,'11111222,11111222,99999999' 
TABS,ioos:station:wmo:42045:1,2014-11-04T06:00:00Z,26.2168,-96.4998,2.0,27.49857055,38.98430966,-99999.0,'11111222,11111222,99999999' 
TABS,ioos:station:wmo:42045:1,2014-11-04T06:30:00Z,26.2168,-96.4998,2.0,21.90268626,33.67033115,-99999.0,'11111222,11111222,99999999' 
TABS,ioos:station:wmo:42045:1,2014-11-04T07:00:00Z,26.2168,-96.4998,2.0,18.81685694,32.27492215,-99999.0,'11111222,11111222,99999999' 
TABS,ioos:station:wmo:42045:1,2014-11-04T07:30:00Z,26.2168,-96.4998,2.0,18.20514036,34.66516695,-99999.0,'11111222,11111222,99999999' 
TABS,ioos:station:wmo:42045:1,2014-11-04T08:00:00Z,26.2168,-96.4998,2.0,10.57152858,37.88297903,-99999.0,'11111222,11111222,99999999' 
TABS,ioos:station:wmo:42045:1,2014-11-04T08:30:00Z,26.2168,-96.4998,2.0,10.71330843,32.76101647,-99999.0,'11111222,11111222,99999999' 
TABS,ioos:station:wmo:42045:1,2014-11-04T09:00:00Z,26.2168,-96.4998,2.0,13.24898206,35.64882747,-99999.0,'11111222,11111222,99999999' 
TABS,ioos:station:wmo:42045:1,2014-11-04T09:30:00Z,26.2168,-96.4998,2.0,11.9303942,35.5069458,-99999.0,'11111222,11111222,99999999' 
TABS,ioos:station:wmo:42045:1,2014-11-04T10:00:00Z,26.2168,-96.4998,2.0,11.37728603,33.45743565,-99999.0,'11111222,11111222,99999999' 
TABS,ioos:station:wmo:42045:1,2014-11-04T10:30:00Z,26.2168,-96.4998,2.0,13.17070721,35.15470097,-99999.0,'11111222,11111222,99999999' 
TABS,ioos:station:wmo:42045:1,2014-11-04T11:00:00Z,26.2168,-96.4998,2.0,0.848972745,31.05340722,-99999.0,'11111222,11111222,99999999' 
TABS,ioos:station:wmo:42045:1,2014-11-04T11:30:00Z,26.2168,-96.4998,2.0,357.7074917,32.4960136,-99999.0,'11111222,11111222,99999999' 
TABS,ioos:station:wmo:42045:1,2014-11-04T12:00:00Z,26.2168,-96.4998,2.0,352.6030167,21.67035302,-99999.0,'11111222,11111222,99999999' 
TABS,ioos:station:wmo:42045:1,2014-11-04T12:30:00Z,26.2168,-96.4998,2.0,348.3942751,29.22757773,-99999.0,'11111222,11111222,99999999' 
TABS,ioos:station:wmo:42045:1,2014-11-04T13:00:00Z,26.2168,-96.4998,2.0,350.1159756,31.92386098,-99999.0,'11111222,11111222,99999999' 
TABS,ioos:station:wmo:42045:1,2014-11-04T13:30:00Z,26.2168,-96.4998,2.0,347.9157453,31.19119908,-99999.0,'11111222,11111222,99999999' 
TABS,ioos:station:wmo:42045:1,2014-11-04T14:00:00Z,26.2168,-96.4998,2.0,15.01328745,33.43111874,-99999.0,'11111222,11111222,99999999' 
TABS,ioos:station:wmo:42045:1,2014-11-04T14:30:00Z,26.2168,-96.4998,2.0,25.3822717,34.87667702,-99999.0,'11111222,11111222,99999999' 
TABS,ioos:station:wmo:42045:1,2014-11-04T15:00:00Z,26.2168,-96.4998,2.0,12.09277862,37.04194919,-99999.0,'11111222,11111222,99999999' 
TABS,ioos:station:wmo:42045:1,2014-11-04T15:30:00Z,26.2168,-96.4998,2.0,8.527440726,32.23635836,-99999.0,'11111222,11111222,99999999' 
TABS,ioos:station:wmo:42045:1,2014-11-04T16:00:00Z,26.2168,-96.4998,2.0,9.884025747,29.94444189,-99999.0,'11111222,11111222,99999999' 